Regional Weather Roundup
Issued by NWS State College, PA

Home | Current Version | Previous Version | Text Only | Print | Product List | Glossary On
Versions: 1 2 3 4 5 6 7 8 9 10 11 12 13 14 15 16 17 18 19 20 21 22 23 24 25 26 27 28 29 30 31 32 33 34 35 36 37 38 39 40 41 42 43 44 45 46 47 48 49 50
000
ASUS41 KCTP 210210
RWRCTP

REGIONAL WEATHER ROUNDUP
NATIONAL WEATHER SERVICE STATE COLLEGE PA
1000 PM EDT SAT SEP 20 2014

Note: "fair" indicates few or no clouds below 12,000 feet with no
significant weather and/or obstructions to visibility.

* = STATION THAT DOES NOT REPORT PRECIPITATION /E.G. RAIN...SNOW...ETC/
    THUNDER OR FOG.

PAZ002>004-007>009-013>016-020>023-029>032-210300-
WESTERN PENNSYLVANIA

CITY           SKY/WX    TMP DP  RH WIND       PRES   REMARKS
ERIE           CLEAR     72  60  66 S14G25    29.88R
MEADVILLE      PTCLDY    67  60  78 S8        29.94S
FRANKLIN*      PTCLDY    66  57  72 S14       29.98S
NEW CASTLE     NOT AVBL
BEAVER COUNTY  NOT AVBL
BUTLER*        CLEAR     68  61  77 S7        30.01R
PITTSBURGH INT PTCLDY    69  61  75 S5        29.99R
PITTSBURGH     CLEAR     69  59  70 S8        30.00R
INDIANA*       PTCLDY    64  61  88 CALM      30.05R
LATROBE        CLEAR     66  63  88 S5        30.02R
WASHINGTON CO* CLEAR     64  61  88 SW5       30.01S
$$

PAZ004>006-010>012-017>019-024>028-033>037-041-042-045-046-049>053-210300-
CENTRAL PENNSYLVANIA

CITY           SKY/WX    TMP DP  RH WIND       PRES   REMARKS
BRADFORD       MOCLDY    66  58  75 VRB7      30.00R
DUBOIS         CLEAR     66  59  78 SW6       30.01R
CLEARFIELD     CLOUDY    67  58  72 SW6       30.02R
JOHNSTOWN      PTCLDY    64  55  72 S13       30.06R
ALTOONA        MOCLDY    66  57  72 S8        30.06R
STATE COLLEGE  CLEAR     66  57  72 SW5       30.03R
WILLIAMSPORT   CLEAR     71  55  56 S21G31    29.99R
SELINSGROVE    PTCLDY    69  58  67 S9G18     30.04R
FT INDIANTOWN  CLEAR     62  61  99 CALM      30.08R
CAPITAL CITY   CLEAR     68  59  73 SE8       30.06R
HARRISBURG     PTCLDY    66  59  78 SE6       30.05S
YORK           CLEAR     60  56  86 CALM      30.06S
$$

PAZ038>040-043-044-047-048-054-055-060>062-067>071-210300-
EASTERN PENNSYLVANIA

CITY           SKY/WX    TMP DP  RH WIND       PRES   REMARKS
SCRANTON       CLEAR     66  57  72 VRB6      30.05S
MOUNT POCONO   CLEAR     61  56  83 S13G20    30.10F
ALLENTOWN      CLEAR     68  57  68 SE7       30.07F
QUAKERTOWN*    CLEAR     64  59  82 CALM      30.09F
READING        CLEAR     68  59  73 S8        30.05F
LANCASTER      CLEAR     62  57  83 E3        30.06F
COATESVILLE    CLEAR     64  63  94 SE5       30.09S
POTTSTOWN      CLEAR     66  59  78 CALM      30.09F
BLUE BELL      CLEAR     68  63  83 CALM      30.08F
DOYLESTOWN     CLEAR     64  61  90 SE3       30.08F
WILLOW GROVE   NOT AVBL
NORTH PHILA    CLEAR     68  60  75 SE5       30.09F
PHILADELPHIA   PTCLDY    67  61  81 SE6       30.08F
$$


USA.gov is the U.S. government's official web portal to all federal, state and local government web resources and services.